TimeCST,TemperatureF,Dew PointF,Humidity,Sea Level PressureIn,VisibilityMPH,Wind Direction,Wind SpeedMPH,Gust SpeedMPH,PrecipitationIn,Events,Conditions,WindDirDegrees,DateUTC
12:53 AM,75.0,69.1,82,29.79,8.0,South,8.1,-,N/A,,Clear,170,2012-12-10 06:53:00
1:53 AM,73.0,69.1,87,29.78,7.0,South,10.4,-,N/A,,Clear,170,2012-12-10 07:53:00
2:53 AM,72.0,69.1,91,29.78,6.0,South,5.8,-,N/A,,Clear,170,2012-12-10 08:53:00
3:53 AM,71.1,68.0,90,29.78,5.0,SSE,4.6,-,N/A,,Clear,160,2012-12-10 09:53:00
4:53 AM,70.0,66.9,90,29.79,4.0,Calm,Calm,-,N/A,,Clear,0,2012-12-10 10:53:00
5:53 AM,69.1,66.0,90,29.83,4.0,NW,6.9,-,N/A,,Clear,320,2012-12-10 11:53:00
6:01 AM,69.8,66.2,88,29.83,3.0,West,3.5,-,N/A,,Partly Cloudy,280,2012-12-10 12:01:00
6:53 AM,70.0,66.9,90,29.88,4.0,NNW,8.1,-,N/A,,Mostly Cloudy,330,2012-12-10 12:53:00
7:02 AM,69.8,66.2,88,29.89,2.5,North,11.5,-,N/A,,Mostly Cloudy,350,2012-12-10 13:02:00
7:14 AM,69.8,66.2,88,29.90,2.5,North,10.4,-,N/A,,Mostly Cloudy,350,2012-12-10 13:14:00
7:25 AM,69.8,68.0,94,29.91,2.5,North,9.2,-,N/A,,Mostly Cloudy,350,2012-12-10 13:25:00
7:30 AM,69.8,66.2,88,29.92,2.5,North,35.7,43.7,N/A,,Mostly Cloudy,350,2012-12-10 13:30:00
7:42 AM,60.8,55.4,82,29.94,2.5,North,25.3,39.1,N/A,,Haze,360,2012-12-10 13:42:00
7:49 AM,60.8,53.6,77,29.95,2.5,North,29.9,41.4,N/A,,Haze,360,2012-12-10 13:49:00
7:53 AM,61.0,53.1,75,29.95,2.5,North,23.0,41.4,N/A,,Haze,360,2012-12-10 13:53:00
8:00 AM,60.8,53.6,77,29.96,10.0,North,27.6,35.7,N/A,,Overcast,360,2012-12-10 14:00:00
8:53 AM,60.1,46.9,62,30.02,10.0,North,24.2,36.8,N/A,,Overcast,350,2012-12-10 14:53:00
9:15 AM,59.0,44.6,59,30.05,10.0,North,23.0,36.8,N/A,,Overcast,350,2012-12-10 15:15:00
9:53 AM,59.0,41.0,51,30.06,10.0,North,20.7,28.8,N/A,,Overcast,360,2012-12-10 15:53:00
10:53 AM,57.0,35.1,44,30.09,10.0,North,19.6,31.1,N/A,,Overcast,350,2012-12-10 16:53:00
11:53 AM,57.0,28.9,34,30.09,10.0,NNW,19.6,28.8,N/A,,Overcast,340,2012-12-10 17:53:00
12:53 PM,57.9,27.0,31,30.07,10.0,NNW,18.4,25.3,N/A,,Overcast,340,2012-12-10 18:53:00
1:53 PM,61.0,27.0,27,30.05,10.0,North,13.8,-,N/A,,Overcast,350,2012-12-10 19:53:00
2:53 PM,61.0,24.1,24,30.04,10.0,North,16.1,23.0,N/A,,Overcast,360,2012-12-10 20:53:00
3:53 PM,62.1,23.0,22,30.03,10.0,North,10.4,-,N/A,,Clear,350,2012-12-10 21:53:00
4:53 PM,61.0,23.0,23,30.04,10.0,NNW,12.7,-,N/A,,Clear,340,2012-12-10 22:53:00
5:53 PM,59.0,24.1,26,30.05,10.0,NNW,5.8,-,N/A,,Clear,340,2012-12-10 23:53:00
6:53 PM,57.0,25.0,29,30.06,10.0,NNW,8.1,-,N/A,,Clear,340,2012-12-11 00:53:00
7:53 PM,55.9,25.0,30,30.08,10.0,NNW,4.6,-,N/A,,Clear,340,2012-12-11 01:53:00
8:53 PM,55.0,25.0,31,30.10,10.0,NNE,8.1,-,N/A,,Clear,20,2012-12-11 02:53:00
9:53 PM,55.0,25.0,31,30.11,10.0,Calm,Calm,-,N/A,,Clear,0,2012-12-11 03:53:00
10:53 PM,54.0,25.0,33,30.11,10.0,NNE,3.5,-,N/A,,Clear,30,2012-12-11 04:53:00
11:53 PM,53.1,26.1,35,30.11,10.0,NNE,4.6,-,N/A,,Clear,30,2012-12-11 05:53:00